#timestamp,LO_Frequency,Hit,StdDev 
1582268415.2,286046996.0,N
1582268435.9,286046993.3,Y
1582268455.7,286046999.3,P
1582268475.6,286046999.5,N
1582268495.4,286046998.1,N
1582268515.3,286046999.5,N
1582268535.1,286046996.5,Y
1582268536.0,286046996.5,P
1582268555.8,286047002.8,N
1582268575.7,286047004.4,N
1582268595.5,286047003.7,N
1582268615.3,286047002.5,N
1582268635.2,286047003.1,N
1582268655.0,286047004.2,N
1582268655.9,286047004.2,N
1582268675.8,286047001.3,N
1582268695.6,286047003.4,N
1582268715.4,286047004.1,N
1582268735.3,286047004.1,N
1582268755.1,286047005.5,N
1582268775.9,286047005.1,N
1582268795.7,286047005.9,N
1582268815.5,286047006.4,N
1582268835.4,286047005.2,N
1582268855.2,286047004.9,N
1582268875.0,286047005.1,N
1582268875.9,286047005.1,N
1582268895.8,286047005.2,N
1582268915.6,286047004.9,N
1582268935.5,286047005.6,N
1582268955.3,286047006.0,N
1582268975.1,286047004.4,N
1582268995.9,286047004.4,N
1582269015.7,286047002.2,N
1582269035.5,286047003.9,N
1582269055.4,286047002.9,N
1582269075.2,286047003.3,N
1582269095.1,286047004.2,N
1582269096.0,286047004.2,Y
1582269115.8,286046998.1,P
1582269135.6,286046998.4,N
1582269155.5,286047001.0,N
1582269175.3,286047001.2,N
1582269195.2,286047002.3,N
1582269215.9,286046998.1,N
1582269235.7,286047000.5,N
1582269255.6,286047000.4,N
1582269275.4,286046998.6,N
1582269295.2,286046999.1,N
1582269315.1,286046998.4,N
1582269316.0,286046998.4,N
1582269335.8,286046996.9,N
1582269355.7,286046997.7,N
1582269375.5,286046999.6,N
1582269395.3,286046996.9,N
1582269415.2,286046996.9,N
1582269435.0,286046996.8,N
1582269435.9,286046996.8,N
1582269455.8,286046999.0,N
1582269475.6,286046999.1,N
1582269495.4,286046996.5,N
1582269515.3,286046998.8,N
1582269535.1,286046996.5,N
1582269555.8,286046996.7,N
1582269575.7,286046999.5,N
1582269595.5,286046996.8,N
1582269615.4,286046997.5,N
1582269635.2,286046997.3,N
1582269655.0,286046997.9,N
1582269655.9,286046997.9,N
1582269675.8,286046997.3,N
1582269695.6,286046997.1,N
1582269715.4,286046999.5,N
1582269735.3,286047000.3,N
1582269755.1,286046998.9,N
1582269775.9,286046997.0,N
1582269795.7,286046997.1,N
1582269815.5,286046996.9,N
1582269835.4,286046999.5,N
1582269855.2,286046996.5,Y
1582269875.1,286047002.5,P
1582269876.0,286047002.5,N
1582269895.8,286047001.5,N
1582269915.6,286046999.7,N
1582269935.5,286047001.9,N
1582269955.3,286047002.0,N
1582269975.1,286047002.6,N
1582269995.9,286047001.5,N
1582270015.7,286047003.8,N
1582270035.6,286047003.8,N
1582270055.4,286047004.4,N
1582270075.2,286047002.2,N
1582270095.1,286046999.7,N
1582270096.0,286046999.7,N
1582270115.8,286047002.6,N
1582270135.7,286047002.6,N
1582270155.5,286047001.7,N
1582270175.3,286047001.4,N
1582270195.2,286047003.8,N
1582270215.0,286047004.1,N
1582270215.9,286047004.1,N
1582270235.7,286047003.4,N
1582270255.6,286047003.5,N
1582270275.4,286047005.1,Y
1582270295.3,286047001.6,P
1582270315.1,286047003.7,P
1582270335.8,286047002.5,N
1582270355.7,286047001.9,N
1582270375.5,286046999.8,N
1582270395.4,286047001.9,N
1582270415.2,286047000.1,N
1582270435.0,286046999.9,N
1582270435.9,286046999.9,N
1582270455.8,286047001.6,N
1582270475.6,286047002.0,N
1582270495.4,286047001.6,N
1582270515.3,286047002.2,N
1582270535.1,286047002.0,N
1582270555.9,286046999.7,N
1582270575.7,286047002.0,N
1582270595.5,286046998.1,N
1582270615.4,286046998.5,N
1582270635.2,286046998.3,N
1582270655.0,286046998.9,N
1582270656.0,286046998.9,N
1582270675.8,286046998.9,N
1582270695.6,286046998.2,N
1582270715.5,286046996.9,N
1582270735.3,286046997.1,N
1582270755.1,286046997.1,N
1582270775.9,286046999.5,N
1582270795.7,286046998.7,N
1582270815.6,286046997.0,N
1582270835.4,286046997.3,N
1582270855.2,286046995.2,N
1582270875.1,286046995.6,N
1582270876.0,286046995.6,N
1582270895.8,286046996.1,N
1582270915.6,286046998.0,N
1582270935.5,286046997.0,N
1582270955.3,286046997.3,N
1582270975.2,286046996.8,N
1582270995.9,286046997.7,N
1582271015.7,286046996.8,N
1582271035.6,286046997.6,N
1582271055.4,286046996.8,N
1582271075.2,286046997.3,N
1582271095.1,286046997.2,N
1582271096.0,286046997.2,N
1582271115.8,286046997.8,N
1582271135.7,286046994.9,Y
1582271155.5,286046999.0,P
1582271175.3,286047000.6,N
1582271195.2,286046998.1,N
1582271215.0,286046998.1,N
1582271215.9,286046998.1,N
1582271235.8,286046998.1,N
1582271255.6,286047002.7,N
1582271275.4,286047000.9,N
1582271295.3,286047000.6,N
1582271315.1,286047000.3,N
1582271335.8,286047002.4,N
1582271355.7,286046999.7,N
1582271375.5,286047001.9,N
1582271395.4,286047002.6,N
1582271415.2,286047002.8,N
1582271435.0,286047002.6,N
1582271435.9,286047002.6,N
1582271455.8,286047004.4,N
1582271475.6,286047005.3,N
1582271495.5,286047003.3,N
1582271515.3,286047005.7,N
1582271535.1,286047004.7,N
1582271555.9,286047005.7,N
1582271575.7,286047004.7,N
1582271595.6,286047005.4,N
1582271615.4,286047005.4,N
1582271635.2,286047005.4,N
1582271655.1,286047005.2,N
1582271656.0,286047005.2,N
1582271675.8,286047003.4,N
1582271695.6,286047005.5,N
1582271715.5,286047006.9,N
1582271735.3,286047007.3,N
1582271755.2,286047006.7,N
1582271775.9,286047004.5,N
1582271795.7,286047006.6,N
1582271815.6,286047007.5,Y
1582271835.4,286047003.7,P
1582271855.3,286047003.5,P
1582271875.1,286047003.7,P
1582271876.0,286047003.7,Y
1582271895.8,286047000.3,P
1582271915.7,286046998.9,N
1582271935.5,286047000.1,N
1582271955.4,286047000.6,N
1582271975.2,286047000.1,N
1582271995.0,286047000.8,N
1582271995.9,286047000.8,N
